User: anonymous   Login
Location: Unspecified
(40.7945°N, 0.0000°E)
Time: 23:56:28
(UTC+00:00)
Language:

deb Explorer IX - Orbit

View from above orbital plane
View from above orbital plane
View from above satellite
View from above satellite

Ground track
Ground track

The orbit data is extracted from the following two-line orbital elements,

1 00085U 61004C   21129.41672854  .00000327  00000-0  89174-4 0  9991
2 00085  38.7729 156.6066 0386844 153.0398 209.1021 14.21661404977482
Epoch (UTC): 09 May 2021 10:00:05
Eccentricity: 0.0386844
inclination: 38.7729°
perigee height: 541 km
apogee height: 1098 km
right ascension of ascending node: 156.6066°
argument of perigee: 153.0398°
revolutions per day: 14.21661404
mean anomaly at epoch: 209.1021°
orbit number at epoch: 97748

The dashed part of the orbit path shows where the satellite is in the earth's shadow,  

DLR